Terminal Aerodrome Forecast
Issued by NWS Charleston, WV

Current Version | Previous Version | Graphics & Text | Print | Product List | Glossary On
Versions: 1 2 3 4 5 6 7 8 9 10 11 12 13 14 15 16 17 18 19 20 21 22 23
000
FTUS41 KRLX 201500 AAA
TAFBKW
TAF AMD
KBKW 201502Z 2015/2112 26008KT P6SM OVC040
     FM201700 27012G22KT P6SM BKN040
     FM210000 28009G15KT P6SM SCT035
     FM210800 30008KT P6SM BKN030
     FM211000 30007KT P6SM SCT030=

USA.gov is the U.S. government's official web portal to all federal, state and local government web resources and services.